GFSSW_700_rhum_201.txt.gz
RH
27 22 18 10 6 5 6 9 12 15 16 17 16 17 17 18 19 16 13 17 16 15 13 12 11 9 8 7 7 8 19 14 11 14 16 21 22 23 23 23 24 26 30 30 29
77 35 26 23 13 8 7 7 11 13 16 18 18 18 20 18 18 16 15 18 16 15 13 10 10 9 7 8 10 16 14 14 12 16 21 21 23 24 22 20 18 20 32 31 30
99 92 46 24 26 18 12 9 9 14 17 19 20 19 21 21 19 14 20 17 17 15 12 10 10 9 8 10 14 19 11 16 14 19 24 19 17 21 20 16 23 28 29 35 33
70 99 97 77 25 25 20 14 14 14 18 21 22 21 23 25 25 19 17 17 18 15 12 9 12 10 10 15 22 21 16 17 16 21 22 23 24 24 22 21 29 30 33 36 35
100 100 96 97 96 36 26 23 16 19 20 22 25 23 24 24 16 24 22 19 18 15 11 9 11 13 14 20 29 27 18 23 21 26 26 27 24 29 17 24 30 30 35 34 36
42 87 59 82 98 94 49 26 28 23 26 26 26 29 24 18 16 26 26 26 27 15 11 10 13 22 21 24 33 30 26 21 28 25 26 29 28 28 14 23 26 30 33 29 34
4 11 61 100 80 99 96 52 27 36 32 32 29 30 26 12 22 22 27 26 32 27 18 17 27 28 28 27 33 29 31 33 29 24 28 29 26 18 24 30 30 32 31 29 29
4 4 19 84 98 100 87 99 38 30 42 39 36 34 21 13 20 22 25 25 26 29 37 33 40 46 43 36 44 40 43 38 27 27 27 26 22 19 33 34 32 34 29 28 29
5 5 5 8 86 97 93 99 100 40 39 50 45 39 22 16 16 20 26 27 26 25 36 52 51 49 48 48 51 55 48 40 31 28 30 31 33 28 32 34 30 33 32 30 32
9 7 6 6 16 72 86 96 100 100 51 58 66 44 25 16 16 18 27 32 30 24 22 29 63 55 49 57 60 42 51 45 32 29 33 34 32 33 35 33 29 29 31 29 28
26 11 9 7 6 19 27 67 100 99 98 43 26 32 26 36 28 30 28 34 34 34 26 28 49 48 45 36 33 40 42 38 36 32 37 36 36 36 35 33 26 31 29 27 27
74 41 11 9 8 8 19 98 99 99 95 80 48 38 33 31 37 27 28 30 33 28 33 42 28 17 26 34 41 43 45 48 37 32 38 36 34 35 38 37 32 30 29 27 27
66 82 26 11 13 18 98 57 100 100 98 98 68 46 45 49 41 31 26 26 26 30 28 23 21 29 32 34 49 53 52 43 40 38 40 46 45 39 37 37 36 34 33 29 28
63 80 62 25 24 40 98 94 79 90 99 95 96 77 61 55 43 34 32 32 37 29 35 39 22 39 33 18 39 52 37 41 47 56 56 42 51 39 34 32 31 31 33 32 30
68 73 72 58 55 42 33 99 97 99 97 85 90 85 61 63 43 36 65 64 43 36 47 29 41 33 42 13 22 31 47 44 51 55 57 50 48 45 42 38 34 35 33 34 34
37 49 66 60 66 36 53 81 98 99 96 93 100 79 89 46 41 55 43 73 48 61 46 25 27 32 14 20 25 46 58 61 58 57 61 54 51 44 44 42 42 41 37 38 40
26 28 41 58 55 70 98 100 98 96 96 95 95 83 80 62 50 62 51 58 77 96 89 80 62 68 44 48 44 68 68 66 68 74 69 51 52 49 46 46 44 44 44 44 48
21 32 42 45 67 88 84 97 96 90 97 75 81 90 97 91 74 65 67 48 57 51 62 85 83 72 71 67 52 69 69 65 83 86 70 54 59 50 48 48 45 46 49 51 52
58 68 24 29 51 92 100 96 93 83 64 55 66 94 100 96 74 67 71 49 31 51 54 64 61 49 53 68 65 70 72 61 61 77 90 61 51 48 47 45 42 43 50 54 58
74 61 13 19 37 58 99 96 96 98 63 48 72 87 94 96 91 84 71 55 32 29 39 50 64 48 38 63 64 58 58 64 63 93 92 80 70 53 51 50 44 44 49 54 55
83 85 32 36 51 61 86 95 83 90 99 98 90 86 92 95 90 82 69 58 48 48 51 53 47 59 57 71 69 73 62 59 57 68 84 86 59 47 49 51 46 44 50 52 49
89 100 78 70 95 90 30 52 69 82 95 98 96 84 90 87 91 84 72 65 62 52 66 53 56 57 59 58 54 55 50 62 61 92 75 62 56 51 47 51 50 48 48 46 45
99 97 88 97 97 84 32 19 38 67 75 98 94 84 84 81 89 73 68 63 65 66 57 67 68 68 74 70 66 71 71 66 63 61 67 76 60 55 50 51 50 48 46 46 48
99 98 94 86 82 98 77 36 55 28 55 95 98 98 88 89 86 79 84 76 72 72 67 64 66 58 64 53 65 67 67 65 66 68 64 67 64 60 52 51 50 49 48 49 49
97 95 91 86 70 77 100 98 52 45 36 89 91 98 99 100 100 95 97 100 87 94 78 80 88 76 68 53 53 56 60 65 67 64 69 59 68 62 56 52 51 51 51 50 49
98 97 96 92 89 98 78 71 100 84 28 55 93 77 99 98 74 75 74 82 96 99 98 100 100 94 80 81 70 67 65 65 61 64 66 65 68 82 82 76 63 56 54 56 62
95 100 98 96 93 100 75 60 55 68 85 28 59 80 97 92 85 73 65 62 83 86 96 100 100 100 98 100 96 92 66 71 66 65 64 70 81 90 93 91 87 64 59 60 64

GFSSW_700_rhum_204.txt.gz
RH
74 48 22 20 16 8 5 6 6 11 15 19 18 18 16 13 12 11 10 14 17 16 16 14 14 12 12 11 10 9 10 9 8 12 14 20 23 23 22 24 24 24 24 25 26
73 81 69 30 23 20 14 8 7 7 14 17 20 19 17 16 13 10 11 16 17 17 16 15 13 13 12 10 9 8 8 8 8 12 17 16 17 19 21 22 21 21 22 24 29
95 71 90 89 49 26 27 22 12 10 9 18 20 21 21 18 15 11 13 14 16 18 16 16 14 11 11 10 9 9 7 8 9 14 18 16 20 20 17 15 17 20 24 28 33
39 52 96 91 99 82 30 29 28 19 13 12 21 23 22 23 22 16 14 14 15 19 18 16 14 12 10 10 10 12 7 9 10 17 18 18 22 24 23 17 22 21 26 31 36
9 15 79 99 90 96 97 57 27 31 24 17 18 24 25 20 12 24 21 17 15 17 18 18 14 11 12 12 13 16 9 13 13 16 17 22 24 27 16 17 21 22 24 29 38
5 5 35 77 88 89 95 100 94 35 31 27 22 22 24 14 11 23 25 22 22 19 19 18 14 13 14 15 18 19 16 17 17 16 19 26 27 28 15 23 20 23 21 21 30
3 4 5 13 56 92 99 87 98 100 48 34 32 28 23 7 13 18 22 26 25 27 23 18 15 15 17 21 28 24 21 23 17 18 25 30 29 23 22 18 15 17 17 21 28
2 3 3 4 14 38 86 99 74 86 99 46 37 37 22 12 11 19 22 23 26 28 34 31 29 24 27 32 42 33 33 30 15 20 27 32 30 21 20 20 19 21 23 27 29
4 3 4 3 3 4 8 72 81 100 100 100 66 39 27 18 14 13 24 22 29 31 32 52 52 50 42 42 56 62 55 24 17 20 31 31 30 22 23 25 25 24 27 32 30
9 6 5 4 4 4 5 12 65 98 99 99 99 74 50 25 17 15 17 28 36 33 34 38 52 66 57 54 68 61 47 33 38 29 32 29 28 27 28 30 32 30 29 33 28
36 27 12 9 8 8 6 6 20 66 99 96 79 75 65 49 31 21 20 25 35 41 36 42 43 47 43 46 35 33 47 48 39 34 38 33 30 28 30 36 34 34 31 30 30
58 71 54 27 18 12 10 7 7 66 100 99 100 97 89 59 43 38 31 29 35 35 39 49 40 25 29 40 47 44 48 56 53 39 36 31 30 28 32 31 33 34 34 30 30
52 50 63 52 40 30 12 8 31 100 99 99 98 100 85 86 58 41 40 30 33 35 37 31 18 27 30 27 34 43 53 67 54 39 34 40 30 29 29 30 29 32 34 34 30
39 42 44 49 45 45 16 16 44 63 100 97 90 90 94 99 93 60 49 42 42 35 34 47 23 39 37 25 28 40 45 49 49 53 56 41 49 38 36 28 28 28 30 34 36
10 17 74 54 50 48 40 42 83 98 95 91 80 80 76 87 70 70 60 58 53 39 52 36 34 48 54 29 38 26 36 37 42 57 60 58 61 51 39 37 30 28 30 34 37
19 48 62 60 57 56 58 56 100 98 96 77 75 87 99 77 68 85 70 58 57 77 67 27 33 52 24 37 36 32 54 65 66 66 83 68 62 44 43 37 30 30 35 38 36
20 33 68 61 52 57 63 72 100 96 96 97 88 75 59 56 58 99 81 74 88 97 88 44 51 57 39 46 54 53 70 76 81 79 79 52 57 30 39 40 39 37 40 41 41
58 60 58 54 58 61 73 100 96 68 92 98 96 94 84 56 83 80 95 87 65 87 61 86 72 48 60 50 55 69 75 62 81 77 62 55 57 46 46 43 40 39 42 46 42
66 57 56 40 65 84 81 96 91 80 71 96 94 98 100 100 91 93 94 93 80 76 66 68 70 43 49 66 58 67 81 32 57 71 81 55 53 51 48 46 42 40 41 42 41
78 70 43 58 96 70 85 97 93 86 92 99 98 95 93 99 100 100 95 82 82 67 68 55 61 57 50 70 74 58 30 77 70 84 85 62 62 53 47 41 41 40 38 43 46
82 96 84 84 74 86 100 69 71 62 90 96 98 98 94 99 93 99 79 61 51 65 65 70 57 54 54 77 69 80 75 67 62 62 70 68 48 41 39 41 39 41 43 46 46
94 100 95 87 94 100 97 35 31 55 72 96 96 97 96 96 87 99 85 50 48 57 68 61 66 60 57 51 45 67 65 61 64 74 70 61 50 49 43 43 44 43 42 46 50
98 97 97 100 98 88 69 34 28 25 36 57 84 97 98 95 96 83 60 45 62 68 69 68 78 66 65 66 60 69 68 66 65 57 64 79 56 42 43 44 42 47 47 47 49
98 97 93 90 86 90 99 81 75 28 32 26 69 66 97 97 97 76 69 56 66 66 78 67 78 80 70 57 63 74 74 74 68 70 56 65 49 52 52 50 50 51 51 50 50
95 91 89 89 83 70 73 88 98 100 88 60 39 24 75 97 98 84 63 75 82 68 79 90 96 97 86 63 53 50 68 64 80 67 71 56 62 51 53 56 54 50 51 50 50
97 97 98 96 88 92 88 76 70 76 100 79 59 28 27 48 96 98 94 78 79 80 74 96 99 100 99 82 62 62 63 61 61 70 74 68 62 61 64 61 63 58 51 49 48
79 92 98 95 96 97 71 63 57 62 64 77 60 82 89 49 70 92 99 94 72 84 82 100 100 99 97 95 86 88 62 67 65 61 60 76 57 66 65 66 74 70 68 71 60

GFSSW_700_rhum_207.txt.gz
RH
69 74 66 40 20 19 14 7 6 6 8 11 13 12 17 15 11 10 8 11 16 14 15 14 14 14 13 13 15 17 15 11 9 8 8 14 22 22 22 23 24 24 24 22 22
9 54 75 75 60 28 21 19 12 7 7 9 12 15 14 17 15 10 10 12 14 15 15 16 16 14 14 13 13 12 11 10 9 9 9 11 16 22 23 22 23 22 22 21 19
3 7 22 63 80 76 47 24 23 19 12 8 10 12 16 16 16 12 13 10 12 16 17 17 17 16 14 13 13 12 10 9 9 9 13 16 16 18 19 19 19 19 20 20 21
4 4 5 16 44 75 85 76 35 26 27 21 12 10 13 16 18 16 14 13 13 14 18 18 17 16 15 13 12 12 9 9 8 10 14 16 15 14 15 12 20 20 23 21 23
3 4 5 22 27 70 70 89 89 67 30 30 28 19 12 11 6 20 22 20 17 15 17 20 19 18 15 14 12 11 9 10 10 10 11 16 16 18 11 21 20 19 18 17 19
3 3 4 4 10 30 90 89 79 98 100 64 29 31 26 12 7 12 23 27 22 22 21 20 20 20 17 14 13 14 10 9 10 12 13 17 20 26 12 23 19 18 16 15 15
3 3 4 4 4 7 35 74 100 82 94 100 94 48 30 18 14 12 13 25 28 28 27 26 24 22 19 15 15 14 13 13 11 10 16 19 22 15 22 24 20 18 16 17 20
4 3 4 4 4 4 5 34 88 65 97 100 100 99 84 34 21 18 14 18 24 34 34 41 35 28 25 25 25 22 20 25 10 10 17 26 24 13 27 25 22 20 21 21 22
6 5 5 4 4 3 4 5 24 80 96 86 97 98 83 72 56 24 23 15 24 31 37 50 55 50 43 37 46 53 55 32 10 10 15 22 25 14 27 26 25 26 24 24 25
21 17 11 9 7 5 4 4 6 20 57 72 100 90 65 39 59 66 36 26 22 33 36 41 54 55 56 64 59 63 57 25 13 20 22 28 26 18 28 28 31 30 28 27 28
64 62 47 22 18 13 9 7 6 6 8 44 92 63 100 78 62 54 58 36 30 33 44 39 47 48 38 41 50 44 46 34 19 19 31 26 28 27 25 29 26 32 32 28 31
80 75 62 48 47 41 28 15 20 32 43 19 39 99 100 99 84 67 43 48 32 27 37 48 37 26 36 47 54 56 50 46 41 32 37 29 24 22 24 24 25 26 31 28 32
73 63 56 51 54 64 50 38 23 50 86 87 57 76 78 99 94 85 72 44 39 37 37 29 9 22 38 40 39 39 48 56 61 61 49 45 22 23 13 19 22 23 24 25 27
71 62 56 63 53 44 49 54 42 35 98 76 74 47 76 100 97 98 98 70 51 33 37 50 22 38 40 40 42 37 34 58 76 76 63 42 34 26 28 25 17 17 20 26 26
66 54 34 69 67 55 51 64 52 52 94 54 53 67 60 77 80 98 97 97 70 45 59 33 37 39 63 41 45 35 47 46 49 70 79 56 63 39 34 36 12 13 18 21 27
42 30 30 39 51 58 67 67 54 99 93 80 61 45 59 45 62 100 92 95 76 68 68 35 34 50 28 34 47 52 56 57 69 82 76 46 54 30 33 22 13 16 23 26 26
68 32 20 40 57 72 67 77 84 95 84 83 100 88 62 65 70 99 79 97 97 98 93 64 58 64 56 59 68 66 75 73 83 88 66 43 55 25 21 26 20 20 24 27 33
79 72 56 37 68 81 76 81 98 60 92 98 99 100 98 84 95 93 99 97 90 88 74 83 68 45 50 47 54 81 70 52 55 47 45 50 51 32 29 25 28 28 25 30 31
86 80 64 69 71 98 97 98 91 78 62 87 96 98 98 100 96 100 100 97 76 81 76 76 72 52 41 49 64 70 86 45 50 53 60 44 40 40 36 37 34 32 29 26 31
83 77 63 70 72 87 98 96 75 82 85 81 94 90 98 90 100 99 97 97 94 73 58 57 64 62 49 56 68 62 42 76 60 73 67 38 46 36 30 36 34 34 30 30 32
96 92 82 89 95 86 94 71 53 48 92 99 93 95 76 98 98 97 94 94 94 90 78 72 69 56 63 69 68 79 71 72 62 55 56 50 38 32 33 37 31 31 28 31 35
98 98 88 82 83 88 56 37 41 34 46 80 87 98 97 93 94 99 92 79 55 51 89 76 86 79 66 57 56 63 65 70 67 66 61 49 43 29 35 37 38 38 38 37 38
96 100 93 91 95 92 83 77 71 52 41 47 72 92 97 97 97 98 99 70 58 53 85 60 94 92 84 74 82 76 66 62 58 60 65 70 44 27 43 36 33 37 33 34 38
97 100 99 98 91 99 96 87 89 81 79 65 38 62 45 59 71 91 95 95 74 73 68 74 83 87 73 64 58 98 85 81 78 77 58 66 38 37 36 43 43 37 34 43 45
97 92 95 94 93 82 77 82 88 92 89 92 92 76 41 84 65 79 82 85 99 86 80 80 93 82 81 68 65 70 84 81 80 76 76 59 51 38 46 46 43 47 49 48 49
97 97 95 84 79 76 79 85 79 74 84 76 94 90 84 70 43 35 43 58 96 96 90 91 97 96 89 85 80 67 72 67 68 71 74 67 61 52 60 60 59 57 54 52 55
90 99 97 97 95 100 95 80 75 72 76 68 70 89 90 84 88 64 80 52 82 90 96 98 99 99 96 96 100 98 86 90 91 74 72 75 46 53 53 58 60 56 57 59 59

GFSSW_700_rhum_210.txt.gz
RH
33 67 72 70 56 26 17 17 10 6 6 7 7 9 11 13 12 12 10 12 14 14 15 15 15 13 13 13 13 15 25 18 15 18 14 20 22 23 24 27 25 24 23 22 22
3 5 26 64 72 70 46 22 19 16 10 6 6 6 8 10 11 10 11 13 13 13 16 17 17 16 16 17 14 16 20 17 18 19 17 17 12 31 24 26 24 24 23 22 21
3 3 3 4 20 60 76 67 35 22 21 17 10 7 7 8 8 7 11 12 12 14 16 19 20 18 19 25 21 18 18 18 20 12 10 19 21 24 25 32 27 27 22 20 17
3 3 3 3 3 4 25 74 82 57 26 25 23 16 10 7 15 8 7 10 13 12 16 19 20 20 21 37 23 21 12 19 18 22 10 9 24 30 21 23 25 19 18 20 17
3 3 3 3 3 4 3 8 62 93 90 56 30 29 27 17 7 8 12 16 14 14 14 18 23 24 37 36 35 30 15 25 11 16 12 18 9 26 10 24 16 22 22 18 16
3 3 3 3 4 4 4 4 6 54 95 100 97 53 33 26 18 12 9 13 18 24 18 18 22 32 47 41 40 34 24 30 33 29 19 10 15 33 7 15 14 21 20 18 16
3 3 4 3 3 4 5 6 9 32 46 78 99 100 99 52 29 24 17 10 13 18 29 26 27 32 40 46 45 44 35 36 35 24 36 24 32 29 7 18 15 21 20 19 17
6 4 4 4 3 4 4 6 7 9 45 96 99 99 89 84 81 57 26 17 13 18 29 42 34 33 51 55 48 47 41 31 26 32 36 28 23 21 21 28 14 21 20 20 19
19 8 7 6 5 4 4 4 6 8 39 87 99 100 93 58 69 69 79 31 22 22 30 47 47 50 72 62 49 50 36 30 30 31 34 38 24 21 24 32 20 22 24 22 21
83 37 20 13 11 8 6 5 5 6 8 70 88 86 96 85 76 71 78 82 33 25 27 34 55 71 65 62 45 36 40 44 33 30 38 32 34 26 31 32 25 34 27 24 22
96 97 83 77 41 18 14 10 10 13 6 7 35 59 82 93 78 55 60 54 73 31 40 50 67 56 46 54 53 41 38 39 33 33 43 41 32 31 32 33 38 30 37 26 23
93 96 93 99 85 54 37 27 34 51 27 6 7 43 78 99 96 62 50 53 48 59 52 53 56 32 48 49 60 63 54 44 36 38 50 42 34 31 31 31 34 35 36 29 24
95 94 94 86 81 60 58 57 48 39 93 60 11 9 34 82 97 89 75 68 56 68 57 44 27 40 45 49 59 62 51 43 41 43 57 56 36 29 29 30 34 36 24 23 21
95 85 80 73 73 64 56 58 56 50 99 80 38 22 50 58 81 81 95 82 70 56 65 52 42 40 49 51 53 55 47 49 49 54 52 36 30 20 17 18 22 32 13 12 15
91 74 70 65 66 54 68 73 60 70 77 38 42 46 35 51 17 48 81 92 85 76 66 50 50 48 42 53 56 47 50 44 51 58 53 46 41 27 24 24 25 35 12 11 14
83 77 68 56 42 33 41 68 75 98 74 54 76 85 100 58 36 74 87 89 87 98 81 60 52 49 43 42 52 56 57 55 52 56 54 41 39 29 20 20 27 30 24 11 13
89 92 60 40 28 37 46 73 88 93 58 77 84 96 100 100 76 94 99 99 98 100 98 68 72 53 51 50 46 60 60 51 56 54 52 32 34 30 20 24 23 25 20 17 15
93 94 79 62 57 66 79 88 89 58 79 81 96 98 98 100 100 99 95 97 100 95 71 74 64 65 54 55 46 50 59 49 58 42 34 36 34 25 24 24 28 25 16 15 14
92 83 77 86 79 60 84 100 81 73 63 64 93 97 98 100 99 99 97 99 87 92 70 56 59 47 56 54 57 46 56 52 46 39 44 31 29 29 28 27 28 33 19 14 17
89 92 83 92 75 87 97 98 76 53 70 91 95 95 98 90 99 99 98 95 81 72 71 57 45 46 51 60 60 55 49 66 63 93 75 43 31 24 21 24 32 30 28 20 23
91 93 86 89 80 77 95 96 67 52 70 83 92 95 96 96 97 99 87 76 71 79 70 67 53 46 43 58 55 58 55 58 63 66 69 58 42 29 28 27 34 29 23 25 26
96 97 86 83 91 90 88 69 75 88 79 76 78 81 95 96 97 98 98 76 74 89 84 75 75 73 56 45 56 54 54 54 75 77 67 57 54 34 30 33 32 41 31 29 30
95 98 95 93 93 91 96 81 94 76 80 81 81 72 86 97 96 95 98 91 99 98 89 83 90 92 69 58 60 60 58 55 65 61 71 85 64 28 39 36 32 30 39 33 34
97 98 94 90 78 95 100 98 97 81 92 92 86 86 84 80 82 86 73 78 96 98 99 99 98 87 77 58 54 83 70 64 67 81 68 75 51 31 36 36 34 31 29 31 38
89 86 87 93 94 73 99 95 96 100 100 92 95 95 93 92 91 85 74 59 77 93 96 98 98 99 86 68 57 65 67 67 65 74 72 58 56 25 42 43 34 33 35 38 37
90 85 85 99 100 100 100 90 86 84 100 100 99 96 92 90 88 95 45 73 80 64 92 96 96 100 98 79 69 61 55 58 66 67 69 60 59 37 49 50 52 48 44 37 35
87 87 94 88 94 100 96 90 80 99 98 99 98 99 100 44 78 98 100 97 92 66 90 96 96 96 97 90 91 87 81 65 62 62 67 69 61 36 56 56 56 56 53 48 46

GFSSW_700_rhum_216.txt.gz
RH
4 5 14 37 66 78 77 63 33 18 15 8 5 5 5 5 5 7 7 12 17 10 10 12 13 13 13 20 32 26 21 20 18 15 11 10 15 21 21 21 21 22 24 35 46
4 4 4 4 9 29 59 79 80 64 33 18 15 8 5 5 4 4 4 7 10 12 12 11 12 20 36 31 34 27 22 20 16 14 10 10 16 19 21 23 24 24 25 27 42
4 4 4 4 4 4 6 15 51 84 81 64 30 18 15 8 5 3 4 4 6 10 12 12 11 30 38 31 29 28 24 20 16 12 12 12 13 14 17 21 23 23 26 29 24
4 4 4 4 4 4 4 4 5 16 64 88 80 51 24 20 19 25 8 4 4 4 10 12 12 14 38 34 29 27 26 23 18 15 13 14 16 14 15 16 22 22 25 28 31
4 4 4 4 4 4 4 4 6 5 9 54 74 91 70 40 21 17 20 15 8 5 5 10 13 14 36 32 28 26 24 25 24 20 16 15 16 15 15 15 17 21 24 28 32
4 4 3 4 3 4 4 4 4 5 6 11 17 40 86 64 55 28 18 16 10 8 10 43 46 39 34 31 28 25 24 23 23 22 20 17 17 16 16 15 17 22 21 25 29
7 6 5 4 4 3 4 4 4 4 5 6 10 14 12 15 56 64 49 23 15 10 16 29 56 50 41 37 35 32 30 28 26 24 24 23 20 22 18 18 17 18 18 22 25
17 22 27 9 6 4 4 4 4 4 5 5 8 15 6 6 30 56 61 55 30 18 10 15 57 56 56 51 40 37 34 34 29 28 26 26 24 22 23 22 21 19 18 20 24
42 68 98 76 33 11 6 4 4 5 5 6 6 7 5 8 6 32 70 70 69 36 23 17 13 33 50 58 55 43 39 33 31 26 24 22 23 23 24 23 20 20 19 18 21
57 93 99 97 97 67 26 13 7 5 6 8 7 26 8 17 8 8 34 58 75 82 56 23 20 46 51 50 48 39 32 32 28 26 23 21 19 19 20 22 23 19 17 17 20
55 82 97 97 97 93 69 34 19 12 8 4 5 4 33 72 51 23 18 31 92 98 78 73 54 38 28 40 36 36 27 24 23 22 23 21 23 21 18 20 22 22 20 18 21
91 95 97 97 97 96 89 68 93 98 98 55 6 38 8 81 98 90 97 94 100 87 88 76 64 33 35 37 40 37 33 32 29 24 21 23 23 24 23 23 25 24 22 21 25
94 97 97 97 96 93 88 74 98 97 87 65 47 11 27 42 72 96 92 96 97 95 84 74 24 46 44 37 34 34 33 34 33 30 27 33 30 27 26 24 25 27 24 22 25
92 95 98 99 94 88 83 72 79 60 86 59 32 16 30 29 60 73 95 88 94 77 78 74 55 55 45 40 35 30 30 30 32 32 34 32 36 29 25 22 22 23 20 18 22
96 96 96 96 98 100 95 95 81 65 84 31 30 18 24 36 7 40 73 84 75 71 70 65 62 56 52 41 36 34 29 28 28 32 32 33 36 32 26 22 20 19 18 18 16
91 92 96 94 83 81 97 64 59 96 76 37 34 38 40 51 46 31 68 78 76 70 68 60 55 54 52 46 41 34 32 34 32 29 34 33 35 34 30 24 22 20 18 17 17
75 88 86 83 96 75 52 50 81 94 61 45 35 56 42 39 48 48 41 85 83 82 74 73 63 47 48 45 41 37 33 37 42 40 38 34 36 35 30 27 26 23 21 19 17
79 85 81 80 81 74 54 87 92 64 55 42 54 55 87 78 52 50 43 56 82 72 66 79 57 64 53 46 40 38 38 40 50 50 42 37 36 35 33 32 24 26 21 22 19
75 78 84 92 89 82 90 100 76 65 57 43 40 51 59 81 99 67 54 42 66 96 77 58 56 44 46 46 44 43 36 37 38 38 46 42 35 33 28 28 27 26 24 24 23
61 76 74 89 90 97 96 94 87 75 61 59 64 77 63 84 94 95 95 88 60 44 62 82 69 49 42 38 42 41 44 41 38 63 62 44 37 34 27 26 26 24 24 25 26
65 74 78 86 92 96 95 94 90 79 69 61 58 56 57 56 67 96 86 94 98 92 72 70 94 68 56 55 40 38 41 41 42 49 70 62 47 37 32 24 26 28 28 29 30
69 88 82 86 93 89 79 81 83 80 70 77 80 54 49 48 53 74 97 96 92 94 95 98 97 97 90 53 51 51 39 40 48 52 55 54 57 35 35 23 23 24 22 24 29
76 76 87 97 96 85 79 77 91 88 76 75 64 52 49 52 54 66 80 93 96 96 90 94 96 97 89 89 64 63 66 61 60 45 68 83 71 24 30 27 36 35 37 36 32
79 77 68 68 68 84 97 83 77 63 90 75 67 62 66 60 59 68 85 80 80 91 87 98 90 97 93 91 98 90 63 56 67 84 82 64 59 39 33 32 25 40 41 34 35
88 82 77 80 58 61 96 96 91 92 92 89 88 86 90 76 63 63 61 60 56 55 68 92 94 90 94 93 90 85 79 76 51 69 96 90 71 51 21 27 41 44 38 36 35
88 84 83 96 98 99 94 83 88 94 86 89 95 78 78 74 73 81 86 85 87 90 83 92 93 97 86 78 76 96 91 87 78 72 56 61 74 56 45 27 42 37 41 40 39
82 82 99 80 95 99 92 88 93 96 87 86 84 87 90 82 77 80 84 79 89 96 97 93 93 95 88 74 88 85 55 57 62 61 62 43 50 48 49 47 43 43 41 41 40